, AK

(GMT )
Portage Glacier

Weather History for PATO - April, 2013

Change the Weather History Date:

Thursday, April 11, 2013

  Actual Average Record
Temperature  
Mean Temperature 8 °F -  
Max Temperature 21 °F - - ()
Min Temperature -6 °F - - ()
Degree Days  
Heating Degree Days 58    
Moisture  
Dew Point 2 °F    
Average Humidity 77    
Maximum Humidity 92    
Minimum Humidity 48    
Precipitation  
Precipitation 0.00 in - - ()
Sea Level Pressure  
Sea Level Pressure 30.04 in    
Wind  
Wind Speed 3 mph (NE)    
Max Wind Speed 6 mph    
Max Gust Speed -    
Visibility 10 miles    
Events      
Averages and records for this station are not official NWS values.
T = Trace of Precipitation, MM = Missing Value Source: NWS Daily Summary

Daily Weather History Graph

Daily Weather History Graph

Search for Another Location

Airport or City:

Trip Planner

Search our weather history database for the weather conditions in past years. The results will help you decide how hot, cold, wet, or windy it might be!

Date:

Astronomy

Apr. 11, 2013 Rise Set
Actual Time 6:46 AM AKDT 9:07 PM AKDT
Civil Twilight 6:00 AM AKDT 9:54 PM AKDT
Nautical Twilight 4:59 AM AKDT 10:56 PM AKDT
Astronomical Twilight 3:36 AM AKDT 12:22 AM AKDT
Moon 6:59 AM AKDT (4/11) 11:26 PM AKDT (4/11)
Length of Visible Light 15h 53m
Length of Day
14h 20m
New Moon, 2% of the Moon is Illuminated
Apr 11
New Moon
Apr 18
First Quarter
Apr 25
Full
May 2
Last Quarter
May 9
New

Hourly Weather History & Observations

Time (AKDT) Temp. Windchill Dew Point Humidity Pressure Visibility Wind Dir Wind Speed Gust Speed Precip Events Conditions
12:24 AM 8.1 °F -2.0 °F 3.9 °F 83% 29.95 in 10.0 mi WNW 5.8 mph - N/A   Mostly Cloudy
12:53 AM 8.1 °F -2.0 °F 3.0 °F 80% 29.97 in 10.0 mi WNW 5.8 mph - N/A   Mostly Cloudy
1:53 AM 6.1 °F -4.3 °F 1.9 °F 83% 29.98 in 10.0 mi NW 5.8 mph - N/A   Mostly Cloudy
2:11 AM 5.0 °F -4.1 °F 1.0 °F 84% 29.99 in 10.0 mi NW 4.6 mph - N/A   Scattered Clouds
2:53 AM 5.0 °F -4.1 °F -0.0 °F 80% 30.01 in 10.0 mi NW 4.6 mph - N/A   Clear
3:53 AM -0.0 °F -7.9 °F -2.9 °F 88% 30.02 in 10.0 mi North 3.5 mph - N/A   Clear
4:53 AM -4.0 °F - -6.0 °F 91% 30.04 in 10.0 mi Calm Calm - N/A   Clear
5:53 AM -6.0 °F - -9.0 °F 87% 30.04 in 10.0 mi Calm Calm - N/A   Mostly Cloudy
6:53 AM -5.1 °F - -8.0 °F 87% 30.04 in 10.0 mi Calm Calm - N/A   Overcast
7:53 AM -2.9 °F - -6.0 °F 87% 30.05 in 10.0 mi Calm Calm - N/A   Partly Cloudy
8:53 AM -0.0 °F - -2.0 °F 91% 30.06 in 10.0 mi Calm Calm - N/A   Scattered Clouds
9:53 AM 5.0 °F - -0.0 °F 80% 30.06 in 10.0 mi Calm Calm - N/A   Partly Cloudy
10:53 AM 6.1 °F - -0.9 °F 73% 30.07 in 10.0 mi Calm Calm - N/A   Overcast
11:53 AM 12.0 °F 4.1 °F 3.0 °F 67% 30.06 in 10.0 mi East 4.6 mph - 0.00 in   Clear
12:53 PM 15.1 °F 7.7 °F 5.0 °F 64% 30.07 in 10.0 mi East 4.6 mph - 0.00 in   Overcast
1:53 PM 19.0 °F 12.3 °F 5.0 °F 54% 30.07 in 10.0 mi ESE 4.6 mph - 0.00 in   Overcast
2:53 PM 21.0 °F 16.2 °F 3.9 °F 48% 30.06 in 10.0 mi ESE 3.5 mph - N/A   Mostly Cloudy
3:53 PM 21.0 °F 14.6 °F 6.1 °F 53% 30.06 in 10.0 mi East 4.6 mph - N/A   Overcast
4:53 PM 21.0 °F 14.6 °F 10.0 °F 63% 30.05 in 10.0 mi East 4.6 mph - N/A   Overcast
5:53 PM 21.0 °F - 10.9 °F 65% 30.05 in 10.0 mi Calm Calm - N/A   Overcast
6:53 PM 19.0 °F - 12.9 °F 77% 30.05 in 10.0 mi Calm Calm - N/A   Partly Cloudy
7:53 PM 18.0 °F 12.7 °F 10.9 °F 74% 30.05 in 10.0 mi South 3.5 mph - N/A   Clear
8:53 PM 12.0 °F - 8.1 °F 84% 30.06 in 10.0 mi Calm Calm - N/A   Clear
9:53 PM 7.0 °F - 5.0 °F 92% 30.06 in 10.0 mi Calm Calm - N/A   Clear
10:53 PM 3.0 °F - 1.0 °F 91% 30.07 in 10.0 mi Calm Calm - N/A   Clear
11:53 PM 1.9 °F - -0.9 °F 88% 30.07 in 10.0 mi Calm Calm - N/A   Clear